FW7828 Weather Reports


time (UTC)temp
C
wind
direction
speed
KPH
gust
KPH
rain 1hr
cm
rain 24hr
cm
rain mn
cm
humidity
%
barometer
mb
20260903111457 25 276 0.0 0.0 0.00 0.00 0.00 95 1015.8
20260903110954 25 337 0.0 0.0 0.00 0.00 0.00 95 1015.9
20260903110449 25 324 0.0 0.0 0.00 0.00 0.00 95 1015.8
20260903105943 25 274 0.0 0.0 0.00 0.00 0.00 95 1015.6
20260903105438 25 342 0.0 0.0 0.00 0.00 0.00 95 1015.7
20260903104938 25 338 0.0 0.0 0.00 0.00 0.00 95 1015.5
20260903104437 25 312 0.0 0.0 0.00 0.00 0.00 95 1015.3
20260903103935 25 338 0.0 0.0 0.00 0.00 0.00 95 1015.2
20260903103430 25 274 0.0 0.0 0.00 0.00 0.00 95 1015.5
20260903102926 25 233 0.0 0.0 0.00 0.00 0.00 96 1015.3
20260903102421 25 335 0.0 0.0 0.00 0.00 0.00 96 1015.3
20260903101920 25 274 0.0 0.0 0.00 0.00 0.00 96 1015.3
20260903101415 25 318 0.0 0.0 0.00 0.00 0.00 96 1015.5
20260903100910 25 297 0.0 0.0 0.00 0.00 0.00 96 1015.3
20260903100405 25 344 0.0 0.0 0.00 0.00 0.00 96 1015.3
20260903095902 25 8 0.0 0.0 0.00 0.00 0.00 96 1015.4
20260903095357 25 242 0.0 0.0 0.00 0.00 0.00 96 1015.2
20260903094852 25 264 0.0 0.0 0.00 0.00 0.00 96 1015.1
20260903094351 24 304 0.0 0.0 0.00 0.00 0.00 96 1015.3
20260903093847 25 10 0.0 0.0 0.00 0.00 0.00 96 1015.2
20260903093343 24 325 1.6 1.6 0.00 0.00 0.00 96 1015.2
20260903092838 24 255 1.6 1.6 0.00 0.00 0.00 96 1015.1
20260903092332 24 23 0.0 0.0 0.00 0.00 0.00 96 1015.0
20260903091831 24 359 0.0 0.0 0.00 0.00 0.00 96 1015.4
20260903091325 24 356 0.0 0.0 0.00 0.00 0.00 96 1015.2
20260903090820 24 336 0.0 0.0 0.00 0.00 0.00 96 1015.2
20260903090321 24 344 0.0 0.0 0.00 0.00 0.00 96 1015.1
20260903085819 24 344 0.0 0.0 0.00 0.00 0.00 96 1014.9
20260903085313 24 345 0.0 0.0 0.00 0.00 0.00 96 1015.1
20260903084812 24 347 0.0 0.0 0.00 0.00 0.00 96 1014.9
20260903084311 24 347 0.0 0.0 0.00 0.00 0.00 96 1015.1
20260903083807 24 347 0.0 0.0 0.00 0.00 0.00 96 1015.0
20260903083302 24 340 0.0 0.0 0.00 0.00 0.00 96 1014.7
20260903082801 24 336 0.0 0.0 0.00 0.00 0.00 96 1015.0
20260903082257 24 347 0.0 0.0 0.00 0.00 0.00 96 1014.9
20260903081756 24 344 0.0 0.0 0.00 0.00 0.00 96 1014.9
20260903081252 24 355 0.0 0.0 0.00 0.00 0.00 96 1014.8
20260903080748 25 352 0.0 0.0 0.00 0.00 0.00 96 1014.9
20260903080246 25 332 0.0 0.0 0.00 0.00 0.00 96 1014.8
20260903075745 25 332 0.0 0.0 0.00 0.00 0.00 96 1015.2
20260903075240 25 283 0.0 0.0 0.00 0.00 0.00 96 1014.9
20260903074739 25 347 0.0 0.0 0.00 0.00 0.00 96 1015.1
20260903074234 25 313 0.0 0.0 0.00 0.00 0.00 96 1015.0
20260903073730 25 351 0.0 0.0 0.00 0.00 0.00 96 1015.0
20260903073225 25 334 0.0 0.0 0.00 0.00 0.00 96 1015.1
20260903072721 25 335 0.0 0.0 0.00 0.00 0.00 96 1014.9
20260903072217 25 341 0.0 0.0 0.00 0.00 0.00 96 1015.2
20260903071713 25 341 0.0 0.0 0.00 0.00 0.00 96 1014.8
20260903071209 25 341 0.0 0.0 0.00 0.00 0.00 96 1015.0
20260903070708 25 341 0.0 0.0 0.00 0.00 0.00 96 1015.3
20260903070204 25 349 0.0 0.0 0.00 0.00 0.00 96 1015.2
20260903065659 25 337 0.0 0.0 0.00 0.00 0.00 96 1015.2
20260903065153 25 340 0.0 0.0 0.00 0.00 0.00 96 1015.0
20260903064652 25 353 0.0 0.0 0.00 0.00 0.00 96 1015.1
20260903064148 25 341 0.0 0.0 0.00 0.00 0.00 96 1015.1
20260903063643 25 0 0.0 0.0 0.00 0.00 0.00 96 1015.1
20260903063138 25 324 0.0 0.0 0.00 0.00 0.00 96 1015.0
20260903062634 25 2 0.0 0.0 0.00 0.00 0.00 96 1015.1
20260903062129 25 357 0.0 0.0 0.00 0.00 0.00 96 1015.3
20260903061624 25 358 0.0 0.0 0.00 0.00 0.00 96 1015.1
20260903061123 25 22 0.0 0.0 0.00 0.00 0.00 96 1015.1
20260903060619 25 26 0.0 0.0 0.00 0.00 0.00 96 1015.2
20260903060114 25 3 0.0 0.0 0.00 0.00 0.00 96 1014.9
20260903055611 25 315 0.0 0.0 0.00 0.00 0.00 96 1015.3
20260903055110 25 25 0.0 0.0 0.00 0.00 0.00 96 1015.2
20260903054605 25 25 0.0 0.0 0.00 0.00 0.00 96 1015.1
20260903054101 25 25 0.0 0.0 0.00 0.00 0.00 96 1015.3
20260903053556 25 25 0.0 0.0 0.00 0.00 0.00 96 1015.3
20260903053052 25 25 0.0 0.0 0.00 0.00 0.00 96 1015.4
20260903052548 25 25 0.0 0.0 0.00 0.00 0.00 96 1015.0
20260903052043 25 27 0.0 0.0 0.00 0.00 0.00 96 1015.4
20260903051543 25 31 0.0 0.0 0.00 0.00 0.00 96 1015.3
20260903051039 25 31 0.0 0.0 0.00 0.00 0.00 96 1015.5
20260903050538 25 31 0.0 0.0 0.00 0.00 0.00 96 1015.5
20260903050033 25 31 0.0 0.0 0.00 0.00 0.00 96 1015.3
20260903045532 26 31 0.0 0.0 0.00 0.00 0.00 96 1015.4
20260903045030 26 3 0.0 0.0 0.00 0.00 0.00 96 1015.4
20260903044525 26 3 0.0 0.0 0.00 0.00 0.00 96 1015.5
20260903044020 26 1 0.0 0.0 0.00 0.00 0.00 96 1015.7
20260903043516 26 1 0.0 0.0 0.00 0.00 0.00 96 1015.5
20260903043015 26 0 0.0 0.0 0.00 0.00 0.00 96 1015.7
20260903042510 26 12 0.0 0.0 0.00 0.00 0.00 96 1015.5
20260903042006 26 12 0.0 0.0 0.00 0.00 0.00 95 1015.5
20260903041503 26 12 0.0 0.0 0.00 0.00 0.00 95 1015.6
20260903040957 26 12 0.0 0.0 0.00 0.00 0.00 95 1015.4
20260903040456 26 12 0.0 0.0 0.00 0.00 0.00 95 1015.5
20260903035953 26 12 0.0 0.0 0.00 0.00 0.00 95 1015.4
20260903035448 26 12 0.0 0.0 0.00 0.00 0.00 95 1015.4
20260903034943 26 12 0.0 0.0 0.00 0.00 0.00 95 1015.2
20260903034438 26 12 0.0 0.0 0.00 0.00 0.00 95 1015.4
20260903033933 26 12 0.0 0.0 0.00 0.00 0.00 95 1015.4
20260903033428 26 12 0.0 0.0 0.00 0.00 0.00 95 1015.6
20260903032923 26 12 0.0 0.0 0.00 0.00 0.00 95 1015.6
20260903032419 26 22 0.0 0.0 0.00 0.00 0.00 95 1015.2
20260903031914 26 21 0.0 0.0 0.00 0.00 0.00 95 1015.3
20260903031413 26 21 0.0 0.0 0.00 0.00 0.00 95 1015.1
20260903030909 26 21 0.0 0.0 0.00 0.00 0.00 95 1015.3
20260903030405 26 30 0.0 0.0 0.00 0.00 0.00 95 1015.4
20260903025900 26 4 0.0 0.0 0.00 0.00 0.00 95 1015.4
20260903025355 26 4 0.0 0.0 0.00 0.00 0.00 95 1015.3
20260903024855 26 4 0.0 0.0 0.00 0.00 0.00 95 1015.4
20260903024350 26 357 0.0 0.0 0.00 0.00 0.00 95 1015.6
20260903023845 26 356 0.0 0.0 0.00 0.00 0.00 94 1015.5
20260903023341 26 24 0.0 0.0 0.00 0.00 0.00 94 1015.6
20260903022836 26 24 0.0 0.0 0.00 0.00 0.00 94 1015.6
20260903022335 26 24 0.0 0.0 0.00 0.00 0.00 94 1015.9
20260903021834 26 5 0.0 0.0 0.00 0.00 0.00 94 1015.8
20260903021330 26 335 0.0 0.0 0.00 0.00 0.00 94 1016.1
20260903020829 26 13 0.0 0.0 0.00 0.00 0.00 94 1016.1
20260903020324 26 17 0.0 0.0 0.00 0.00 0.00 94 1016.0
20260903015819 26 17 0.0 0.0 0.00 0.00 0.00 94 1016.0
20260903015315 26 17 0.0 0.0 0.00 0.00 0.00 93 1016.0
20260903014810 26 17 0.0 0.0 0.00 0.00 0.00 93 1015.8
20260903014310 27 16 0.0 0.0 0.00 0.00 0.00 93 1015.7
20260903013805 27 70 0.0 0.0 0.00 0.00 0.00 93 1015.9
20260903013304 27 352 0.0 0.0 0.00 0.00 0.00 93 1015.7
20260903012803 27 349 0.0 0.0 0.00 0.00 0.00 93 1015.9
20260903012258 27 48 0.0 0.0 0.00 0.00 0.00 92 1015.7
20260903011757 27 25 0.0 0.0 0.00 0.00 0.00 92 1015.8
20260903011256 27 21 0.0 0.0 0.00 0.00 0.00 92 1015.8
20260903010752 27 21 0.0 0.0 0.00 0.00 0.00 92 1015.8
20260903010247 27 325 0.0 0.0 0.00 0.00 0.00 92 1015.3
20260903005746 27 100 0.0 0.0 0.00 0.00 0.00 92 1014.9
20260903005241 27 288 0.0 0.0 0.00 0.00 0.00 91 1014.9
20260903004737 27 14 0.0 0.0 0.00 0.00 0.00 91 1014.8
20260903004232 27 14 0.0 0.0 0.00 0.00 0.00 91 1014.6
20260903003727 27 23 0.0 0.0 0.00 0.00 0.00 90 1014.7
20260903003222 27 9 0.0 0.0 0.00 0.00 0.00 90 1014.9
20260903002717 27 303 0.0 0.0 0.00 0.00 0.00 90 1014.9
20260903002211 27 18 0.0 0.0 0.00 0.00 0.00 89 1015.0
20260903001706 28 43 0.0 0.0 0.00 0.00 0.00 89 1014.9
20260903001201 28 80 0.0 0.0 0.00 0.00 0.00 88 1015.4
20260903000656 28 42 0.0 0.0 0.00 0.00 0.00 89 1015.4
20260903000155 28 29 0.0 0.0 0.00 0.00 0.00 89 1015.2
20260902235654 28 41 0.0 0.0 0.00 0.00 0.00 89 1015.3
20260902235144 28 55 0.0 0.0 0.00 0.00 0.00 89 1015.6
20260902234644 28 13 1.6 1.6 0.00 0.00 0.00 89 1015.8
20260902234142 28 52 0.0 0.0 0.00 0.00 0.00 89 1015.5
20260902233638 28 36 0.0 1.6 0.00 0.00 0.00 88 1015.6
20260902233137 28 79 1.6 3.2 0.00 0.00 0.00 88 1015.6
20260902232636 28 94 1.6 3.2 0.00 0.00 0.00 88 1015.7
20260902232136 29 80 0.0 0.0 0.00 0.00 0.00 88 1015.9
20260902231636 29 92 1.6 3.2 0.00 0.00 0.00 87 1016.2
20260902231130 29 100 1.6 3.2 0.00 0.00 0.00 88 1016.2
20260902230626 30 129 3.2 3.2 0.00 0.00 0.00 87 1016.2
20260902230124 30 123 3.2 3.2 0.00 0.00 0.00 85 1015.8
20260902225620 29 123 3.2 4.8 0.00 0.00 0.00 86 1015.8
20260902225119 29 80 0.0 0.0 0.00 0.00 0.00 86 1015.9
20260902224618 29 125 1.6 1.6 0.00 0.00 0.00 86 1015.9
20260902224114 29 87 1.6 1.6 0.00 0.00 0.00 87 1015.7
20260902223610 29 22 0.0 0.0 0.00 0.00 0.00 86 1015.7
20260902223109 29 13 3.2 3.2 0.00 0.00 0.00 86 1015.7
20260902222608 29 358 1.6 3.2 0.00 0.00 0.00 85 1015.8
20260902222107 29 76 3.2 4.8 0.00 0.00 0.00 85 1015.6
20260902221602 30 62 1.6 1.6 0.00 0.00 0.00 85 1015.5
20260902221101 30 54 0.0 0.0 0.00 0.00 0.00 85 1015.4
20260902220557 30 66 1.6 3.2 0.00 0.00 0.00 84 1015.7
20260902220052 30 76 1.6 3.2 0.00 0.00 0.00 84 1015.5
20260902215548 30 76 1.6 1.6 0.00 0.00 0.00 85 1015.3
20260902215043 30 82 1.6 1.6 0.00 0.00 0.00 85 1015.5
20260902214538 30 35 0.0 1.6 0.00 0.00 0.00 86 1015.6
20260902214037 30 23 1.6 1.6 0.00 0.00 0.00 85 1015.6
20260902213533 30 31 0.0 1.6 0.00 0.00 0.00 85 1015.7
20260902213032 30 25 1.6 1.6 0.00 0.00 0.00 85 1015.6
20260902212528 30 54 0.0 0.0 0.00 0.00 0.00 84 1015.6
20260902212023 30 54 0.0 1.6 0.00 0.00 0.00 82 1015.8
20260902211519 31 36 3.2 3.2 0.00 0.00 0.00 82 1015.5
20260902211015 31 92 3.2 3.2 0.00 0.00 0.00 81 1015.2
20260902210514 31 52 0.0 0.0 0.00 0.00 0.00 82 1015.3
20260902210014 31 49 1.6 1.6 0.00 0.00 0.00 81 1015.2
20260902205508 31 79 1.6 3.2 0.00 0.00 0.00 80 1015.1
20260902205004 31 103 4.8 4.8 0.00 0.00 0.00 79 1014.8
20260902204503 31 84 4.8 8.0 0.00 0.00 0.00 79 1014.6
20260902203958 32 75 3.2 3.2 0.00 0.00 0.00 79 1014.5
20260902203454 33 90 3.2 3.2 0.00 0.00 0.00 76 1014.6
20260902202952 33 134 3.2 3.2 0.00 0.00 0.00 74 1014.6
20260902202449 33 92 0.0 0.0 0.00 0.00 0.00 71 1014.6
20260902201945 33 85 1.6 1.6 0.00 0.00 0.00 74 1014.8
20260902201440 33 18 0.0 1.6 0.00 0.00 0.00 73 1014.7
20260902200940 33 80 1.6 3.2 0.00 0.00 0.00 72 1014.7
20260902200435 33 71 1.6 1.6 0.00 0.00 0.00 73 1014.9
20260902195931 33 132 0.0 1.6 0.00 0.00 0.00 73 1014.9
20260902195426 33 145 1.6 1.6 0.00 0.00 0.00 75 1015.0
20260902194920 33 155 0.0 1.6 0.00 0.00 0.00 73 1015.0
20260902194420 33 152 1.6 1.6 0.00 0.00 0.00 73 1015.3
20260902193915 32 134 0.0 1.6 0.00 0.00 0.00 75 1015.2
20260902193411 32 150 0.0 1.6 0.00 0.00 0.00 75 1015.3
20260902192909 32 314 0.0 0.0 0.00 0.00 0.00 76 1015.4
20260902192409 32 150 0.0 0.0 0.00 0.00 0.00 76 1015.3
20260902191908 32 196 0.0 0.0 0.00 0.00 0.00 75 1015.2
20260902191358 33 143 0.0 1.6 0.00 0.00 0.00 74 1015.5
20260902190858 33 152 1.6 3.2 0.00 0.00 0.00 73 1015.6
20260902190353 33 113 3.2 3.2 0.00 0.00 0.00 72 1015.6
20260902185849 33 208 1.6 1.6 0.00 0.00 0.00 72 1015.6
20260902185345 33 245 1.6 1.6 0.00 0.00 0.00 72 1015.4
20260902184840 33 177 1.6 3.2 0.00 0.00 0.00 71 1015.6
20260902184335 33 122 1.6 1.6 0.00 0.00 0.00 75 1015.5
20260902183831 33 199 1.6 3.2 0.00 0.00 0.00 70 1015.5
20260902183327 33 176 1.6 1.6 0.00 0.00 0.00 70 1015.4
20260902182822 33 183 1.6 3.2 0.00 0.00 0.00 70 1015.7
20260902182319 33 183 3.2 3.2 0.00 0.00 0.00 70 1015.7
20260902181815 33 199 3.2 3.2 0.00 0.00 0.00 70 1015.7
20260902181310 33 122 3.2 3.2 0.00 0.00 0.00 69 1015.6
20260902180804 33 279 0.0 1.6 0.00 0.00 0.00 70 1015.5
20260902180300 32 297 1.6 1.6 0.00 0.00 0.00 73 1015.7
20260902175755 32 144 3.2 4.8 0.00 0.00 0.00 73 1015.6
20260902175250 32 169 3.2 3.2 0.00 0.00 0.00 74 1015.7
20260902174746 33 162 1.6 3.2 0.00 0.00 0.00 72 1015.7
20260902174242 33 126 0.0 1.6 0.00 0.00 0.00 74 1015.8
20260902173737 32 135 1.6 3.2 0.00 0.00 0.00 76 1015.7
20260902173237 32 156 1.6 3.2 0.00 0.00 0.00 76 1015.6
20260902172732 32 148 1.6 3.2 0.00 0.00 0.00 77 1015.7
20260902172232 32 156 3.2 3.2 0.00 0.00 0.00 76 1015.4
20260902171727 32 199 3.2 3.2 0.00 0.00 0.00 76 1016.0
20260902171222 32 19 0.0 1.6 0.00 0.00 0.00 76 1015.7
20260902170718 32 162 4.8 4.8 0.00 0.00 0.00 76 1015.8
20260902170213 32 175 3.2 3.2 0.00 0.00 0.00 77 1015.8
20260902165708 31 166 3.2 4.8 0.00 0.00 0.00 77 1015.8
20260902165202 31 164 3.2 3.2 0.00 0.00 0.00 76 1015.7
20260902164657 31 172 4.8 4.8 0.00 0.00 0.00 76 1015.9
20260902164156 32 151 4.8 4.8 0.00 0.00 0.00 76 1015.6
20260902163652 32 161 3.2 3.2 0.00 0.00 0.00 75 1015.9
20260902163151 32 165 3.2 3.2 0.00 0.00 0.00 74 1016.0
20260902162650 32 201 6.4 9.7 0.00 0.00 0.00 74 1016.0
20260902162144 32 158 3.2 3.2 0.00 0.00 0.00 73 1015.8
20260902161640 32 158 3.2 3.2 0.00 0.00 0.00 72 1016.1
20260902161136 32 171 1.6 1.6 0.00 0.00 0.00 71 1016.0
20260902160632 32 131 3.2 3.2 0.00 0.00 0.00 72 1016.0
20260902160127 32 174 4.8 4.8 0.00 0.00 0.00 73 1015.9
20260902155625 31 150 1.6 3.2 0.00 0.00 0.00 74 1016.2
20260902155124 31 131 1.6 1.6 0.00 0.00 0.00 73 1016.0
20260902154619 31 138 4.8 4.8 0.00 0.00 0.00 73 1016.1
20260902154114 31 175 1.6 1.6 0.00 0.00 0.00 73 1016.0
20260902153613 31 161 3.2 3.2 0.00 0.00 0.00 74 1016.1
20260902153108 30 223 1.6 1.6 0.00 0.00 0.00 77 1016.2
20260902152605 30 176 4.8 4.8 0.00 0.00 0.00 79 1016.1
20260902152100 29 113 3.2 4.8 0.00 0.00 0.00 80 1016.1
20260902151555 30 155 4.8 4.8 0.00 0.00 0.00 81 1016.2
20260902151055 29 91 3.2 4.8 0.00 0.00 0.00 80 1016.4
20260902150550 29 170 4.8 4.8 0.00 0.00 0.00 81 1016.1
20260902150046 29 177 4.8 4.8 0.00 0.00 0.00 81 1016.0
20260902145541 29 168 3.2 3.2 0.00 0.00 0.00 81 1015.8
20260902145040 28 68 1.6 1.6 0.00 0.00 0.00 81 1015.9
20260902144537 28 150 1.6 3.2 0.00 0.00 0.00 82 1015.9
20260902144038 28 213 1.6 1.6 0.00 0.00 0.00 84 1015.8
20260902143538 28 160 3.2 3.2 0.00 0.00 0.00 84 1015.9
20260902143034 28 185 3.2 4.8 0.00 0.00 0.00 84 1015.8
20260902142529 27 151 1.6 1.6 0.00 0.00 0.00 83 1015.8
20260902142025 27 165 0.0 1.6 0.00 0.00 0.00 84 1016.0
20260902141524 27 9 1.6 1.6 0.00 0.00 0.00 84 1016.0
20260902141020 27 196 1.6 3.2 0.00 0.00 0.00 85 1015.9
20260902140520 27 7 0.0 0.0 0.00 0.00 0.00 85 1015.7
20260902140015 27 157 4.8 4.8 0.00 0.00 0.00 85 1015.8
20260902135509 27 107 3.2 3.2 0.00 0.00 0.00 85 1015.9
20260902135009 27 178 1.6 1.6 0.00 0.00 0.00 85 1015.9
20260902134505 27 136 4.8 4.8 0.00 0.00 0.00 84 1015.9
20260902134000 28 1 0.0 1.6 0.00 0.00 0.00 84 1015.7
20260902133455 28 114 0.0 1.6 0.00 0.00 0.00 83 1015.8
20260902132949 28 141 0.0 1.6 0.00 0.00 0.00 82 1015.8
20260902132444 27 107 0.0 0.0 0.00 0.00 0.00 82 1015.9
20260902131939 27 318 1.6 1.6 0.00 0.00 0.00 84 1015.9
20260902131436 27 124 3.2 3.2 0.00 0.00 0.00 84 1016.1
20260902130935 27 167 3.2 4.8 0.00 0.00 0.00 84 1016.0
20260902130431 27 292 0.0 1.6 0.00 0.00 0.00 84 1015.9
20260902125926 27 172 1.6 3.2 0.00 0.00 0.00 84 1015.9
20260902125422 27 177 1.6 1.6 0.00 0.00 0.00 84 1015.8
20260902124918 26 8 0.0 1.6 0.00 0.00 0.00 85 1015.9
20260902124413 26 137 0.0 0.0 0.00 0.00 0.00 86 1015.8
20260902123908 26 195 0.0 1.6 0.00 0.00 0.00 86 1015.9
20260902123405 26 255 0.0 0.0 0.00 0.00 0.00 87 1015.9
20260902122903 26 24 0.0 0.0 0.00 0.00 0.00 87 1015.9
20260902122359 26 217 1.6 1.6 0.00 0.00 0.00 87 1016.1
20260902121854 26 149 1.6 1.6 0.00 0.00 0.00 88 1015.9
20260902121349 26 246 1.6 1.6 0.00 0.00 0.00 89 1016.0
20260902120844 25 150 1.6 3.2 0.00 0.00 0.00 89 1016.2
20260902120340 25 147 0.0 1.6 0.00 0.00 0.00 90 1016.2
20260902115834 25 347 0.0 0.0 0.00 0.00 0.00 91 1016.1
20260902115331 25 118 0.0 0.0 0.00 0.00 0.00 90 1016.0
20260902114827 25 261 0.0 0.0 0.00 0.00 0.00 91 1015.9
20260902114323 25 334 0.0 0.0 0.00 0.00 0.00 91 1015.8
20260902113823 25 279 0.0 0.0 0.00 0.00 0.00 91 1015.8
20260902113318 25 316 1.6 1.6 0.00 0.00 0.00 91 1015.6
20260902112817 25 39 0.0 0.0 0.00 0.00 0.00 91 1015.6
20260902112314 25 174 1.6 3.2 0.00 0.00 0.00 91 1015.9
20260902111809 25 240 0.0 0.0 0.00 0.00 0.00 91 1015.8